Weather in Yukki

Russia / Saint-Petersburg and Leningrad Oblast     60°06′55″N   30°16′38″E
temp.,
°C
wind,
m/s
gust,
m/s
humid.,
%
clouds,
%
prec.,
mm/h
press.,
hPa
HPBL,
m
16 june, wed
wed1600:00+11w49783 0.0 1011310
03:00+10w38920 0.0 1013220
06:00+12w38802 0.0 1014351
09:00+16w585143 0.0 10151014
12:00+18w610470 0.0 10161248
15:00+18w6944100 0.0 10171005
18:00+17wnw4850100 0.0 1017427
21:00+15w3958100 0.0 1018307
17 june, thu
thu1700:00+14w3106624 0.0 1019339
03:00+11wsw3107518 0.0 1020238
06:00+13w49735 0.0 1021362
09:00+16w46585 0.0 1023610
12:00+19wnw44455 0.0 1024833
15:00+21wnw34355 0.0 1024876
18:00+21wnw24365 0.0 1024505
21:00+16nw00545 0.0 102411
18 june, fri
fri1800:00+14sse226457 0.0 102418
03:00+13ssw237351 0.0 102353
06:00+16s287329 0.0 1023225
09:00+22sw37545 0.0 1022675
12:00+26wsw58394 0.0 10221700
15:00+25w47385 0.0 10211147
18:00+26wsw37400 0.0 1020966
21:00+21sw36620 0.0 1019108
19 june, sat
sat1900:00+17wsw24760 0.0 102074
03:00+16ssw24820 0.0 102074
06:00+18sw39770 0.0 1020257
09:00+24sw48610 0.0 1020879
12:00+28wsw47430 0.0 10201964
15:00+29wsw47372 0.0 10191852
18:00+28wsw36399 0.0 10181400
21:00+22sse00700 0.0 101811
20 june, sun
sun2000:00+19s311710 0.0 1018201
03:00+19ssw311740 0.0 1018235
06:00+20ssw311752 0.0 1018314
09:00+25ssw596049 0.0 1017824
12:00+28ssw68439 0.0 10171743
15:00+30sw57355 0.0 10152195
18:00+28wsw2648100 0.0 10151054
21:00+20w3987100 0.1 1016212